Location: Baumgarten
(49.0970°N, 12.7493°E)
Time: 08:44:04
(UTC+00:00)

Cosmos 1408 - Pass Details

Date: 05 July 2020
Orbit: 470 x 494 km, 82.6° (Epoch: 04 August)

Event Time Altitude Azimuth Distance (km) Brightness Sun altitude
Exits shadow 21:28:52 26° 130° (SE) 972 3.6 -14.5°
Maximum altitude 21:30:03 33° 92° (E) 820 3.5 -14.6°
Drops below altitude 10° 21:33:18 10° 27° (NNE) 1,645 5.8 -14.8°
Sets 21:35:31 0° 18° (NNE) 2,528 7.0 -15.0°
